This demonstration page uses our WeatherBlox Daily Observations layout. Learn more.

Left ArrowRight Arrow

Hourly Observations for December 2, 2015

Temp ( °F °C ) Dew Point ( °F °C ) Humidity (%) Winds ( mph kmh ) Pressure ( in mb ) Visibility ( mi km ) Precip ( " mm )
12:58 am 00:58 Cloudy with Light Snow 33 0.7 30 -1.1 88 88 WNW 16 26 29.87 1012 7 11 0.00 0.03
1:36 am 01:36 Cloudy 32 0 30 -1 93 93 WNW 13 20 29.85 1011 10 16 0.00 0.00
1:58 am 01:58 Cloudy 33 0.7 29 -1.5 85 85 WNW 14 22 29.88 1012 10 16 0.00 0.03
2:58 am 02:58 Cloudy 33 0.6 29 -1.7 85 85 WNW 14 22 29.89 1012 10 16 0.00 0.00
3:51 am 03:51 Cloudy with Light Snow 32 0 28 -2 87 87 WNW 15 24 29.88 1012 7 11 0.00 0.00
3:58 am 03:58 Cloudy with Light Snow 33 0.5 29 -1.6 86 86 WNW 16 26 29.90 1013 7 11 0.00 0.03
4:24 am 04:24 Cloudy with Light Snow 32 0 28 -2 87 87 WNW 14 22 29.88 1012 8 13 0.00 0.00
4:58 am 04:58 Cloudy with Light Snow 33 0.5 29 -1.6 86 86 WNW 17 28 29.91 1013 10 16 0.00 0.03
5:05 am 05:05 Cloudy with Light Snow 32 0 30 -1 93 93 WNW 16 26 29.94 1014 10 16 0.00 0.00
5:06 am 05:06 Cloudy with Light Snow 32 0 30 -1 93 93 WNW 15 24 29.94 1014 10 16 0.00 0.00
5:39 am 05:39 Cloudy 32 0 30 -1 93 93 WNW 15 24 29.94 1014 10 16 0.00 0.00
5:58 am 05:58 Cloudy 33 0.8 30 -1 88 88 WNW 13 20 29.92 1013 10 16 0.00 0.03
6:51 am 06:51 Cloudy with Light Snow 34 1 32 0 93 93 WNW 15 24 29.94 1014 10 16 0.00 0.00
6:58 am 06:58 Cloudy with Light Snow 34 1 30 -0.9 87 87 WNW 15 24 29.94 1014 10 16 0.00 0.03
7:20 am 07:20 Cloudy with Light Rain 34 1 32 0 93 93 WNW 14 22 29.94 1014 10 16 0.00 0.00
7:25 am 07:25 Cloudy 34 1 32 0 93 93 WNW 15 24 29.94 1014 10 16 0.00 0.00
7:58 am 07:58 Cloudy 34 1.3 31 -0.6 87 87 WNW 14 22 29.95 1014 10 16 0.00 0.03
8:22 am 08:22 Mostly Cloudy 34 1 32 0 93 93 NW 14 22 29.94 1014 10 16 0.00 0.00
8:58 am 08:58 Cloudy 36 2 32 -0.2 86 86 WNW 12 19 29.97 1015 10 16 0.00 0.00
9:58 am 09:58 Cloudy 37 2.8 31 -0.6 79 79 WNW 17 28 29.99 1016 10 16 0.00 0.00
10:58 am 10:58 Mostly Cloudy 38 3.6 29 -1.6 69 69 NW 16 26 30.01 1016 10 16 0.00 0.00
11:58 am 11:58 Mostly Cloudy 40 4.7 29 -1.6 64 64 NNW 16 26 30.01 1016 10 16 0.00 0.00
12:58 pm 12:58 Sunny 40 4.7 28 -2.5 60 60 NW 15 24 30.04 1017 10 16 0.00 0.00
1:58 pm 13:58 Sunny 41 4.9 27 -2.9 57 57 NW 14 22 30.06 1018 10 16 0.00 0.00
2:58 pm 14:58 Sunny 40 4.2 26 -3.1 59 59 NNW 14 22 30.08 1019 10 16 0.00 0.00
3:58 pm 15:58 Sunny 38 3.3 26 -3.6 61 61 NW 15 24 30.11 1020 10 16 0.00 0.00
4:58 pm 16:58 Clear 35 1.8 25 -4.1 65 65 NW 8 13 30.13 1020 10 16 0.00 0.00
5:58 pm 17:58 Clear 32 -0.1 24 -4.4 73 73 NW 9 15 30.15 1021 10 16 0.00 0.00
6:58 pm 18:58 Clear 30 -1.1 24 -4.6 77 77 Calm 30.17 1022 10 16 0.00 0.00
7:58 pm 19:58 Clear 26 -3.3 23 -5 88 88 NW 3 6 30.20 1023 10 16 0.00 0.00
8:58 pm 20:58 Clear 30 -1.3 24 -4.7 78 78 WNW 5 7 30.22 1023 10 16 0.00 0.00
9:58 pm 21:58 Clear 26 -3.1 23 -5.2 86 86 SW 2 4 30.24 1024 10 16 0.00 0.00
10:58 pm 22:58 Clear 24 -4.4 22 -5.4 93 93 W 2 4 30.24 1024 10 16 0.00 0.00
11:58 pm 23:58 Clear 24 -4.7 21 -6.3 89 89 W 1 2 30.26 1025 10 16 0.00 0.00

Powered by AerisWeather